Tracking 30995 objects as of 5-Jul-2025
HD Live streaming from Space Station
objects crossing your sky now

O3BF04

Track O3BF04 now!
10-day predictions


NORAD ID: 56367
Int'l Code: 2023-059A
Perigee: 8,067.0 km
Apogee: 8,079.0 km
Inclination: 0.0 °
Period: 287.9 minutes
Semi major axis: 14443 km
RCS: Unknown
Launch date: April 28, 2023
Source: SOCIETE EUROPEENNE DES SATELLITES (SES)
Launch site: AIR FORCE EASTERN TEST RANGE (AFETR)
Your satellite tracking list
Your tracking list is empty




NASA's NSSDC Master Catalog

Two Line Element Set (TLE):
1 56367U 23059A   25185.76542797 -.00000019  00000-0  00000-0 0  9995
2 56367   0.0361 356.3443 0004168 111.0425 252.6581  5.00116948 41222
Source of the keplerian elements: AFSPC